Theta_e
322 318 320 321 322 321 320 318 321 322 324 322 318 314 311 306 310 312 316 326 325 319 314 315 316 314 332 340 341 341 342 339 339 340 340 340 341 345 338 339 337 335 333
320 324 323 322 322 321 318 321 323 323 321 318 316 314 311 306 310 312 315 325 326 322 318 313 318 316 322 337 340 341 341 341 339 341 341 340 344 343 337 336 336 334 333
321 321 321 320 321 319 316 318 319 317 317 318 315 311 308 308 311 313 315 320 325 325 322 323 317 317 317 333 339 340 341 340 339 339 341 341 344 340 334 335 334 334 334
319 318 315 316 315 315 317 318 317 318 320 319 313 312 311 308 310 313 314 317 323 325 326 327 324 320 316 326 337 339 340 340 339 339 342 342 342 334 334 333 334 331 331
315 314 315 315 315 316 318 319 320 321 319 316 316 316 315 311 309 314 313 317 319 326 328 327 327 328 318 319 333 338 339 340 340 339 341 340 337 336 332 332 335 335 332
315 315 315 316 316 319 319 320 317 316 316 317 323 323 323 321 315 316 315 316 315 325 325 329 327 327 325 316 326 336 337 339 341 339 340 341 339 334 327 331 337 336 332
316 316 316 318 317 315 315 315 316 319 319 321 324 324 323 322 321 315 314 314 313 315 326 326 329 325 326 318 319 333 336 338 339 338 339 340 338 332 331 334 336 332 330
315 315 314 314 315 317 318 319 319 319 319 320 320 322 321 322 319 315 320 321 313 311 320 327 328 327 324 321 314 326 335 336 338 338 338 338 336 332 332 336 333 333 330
315 315 316 318 317 318 320 320 319 319 320 319 320 320 320 320 319 321 320 321 319 311 318 325 328 328 326 320 314 322 333 336 337 338 338 336 337 332 335 335 330 332 333
315 316 317 315 319 321 321 319 321 321 321 321 320 321 321 321 322 322 318 320 319 318 317 324 325 326 325 321 317 320 334 336 336 336 337 335 339 332 332 332 326 330 332
314 314 315 317 320 320 320 320 321 321 320 321 321 320 320 320 320 321 321 321 321 317 317 323 323 325 324 321 319 320 334 336 336 336 337 335 338 329 328 329 334 334 334
312 313 313 318 320 321 321 319 319 319 319 319 318 318 317 318 318 319 319 320 321 317 321 320 323 325 323 321 318 322 334 336 336 335 336 337 332 330 335 336 335 334 333
314 312 318 321 321 321 319 318 318 319 319 319 319 318 317 317 317 317 318 320 318 320 321 321 322 324 322 321 319 325 334 335 334 335 335 335 330 335 335 335 333 332 328
313 319 321 320 321 322 320 320 319 319 320 320 319 318 318 320 318 317 317 316 316 320 321 322 322 321 321 321 320 328 334 332 334 335 335 333 331 336 335 333 333 328 326
311 313 322 321 321 320 320 321 321 320 320 319 319 320 320 319 317 317 317 318 319 321 322 322 322 322 321 322 321 329 333 332 334 334 334 332 332 334 332 333 329 326 326
312 319 322 321 320 320 320 322 321 320 320 319 318 320 320 320 319 318 319 320 321 321 322 322 321 321 322 323 321 331 333 331 332 332 332 330 328 328 331 331 330 326 328
320 322 322 322 321 320 321 321 320 320 319 318 318 319 320 320 320 321 321 321 320 320 320 321 321 321 323 323 320 332 332 331 331 332 332 330 327 333 332 330 329 326 327
322 321 321 322 321 321 321 321 321 321 319 319 318 319 320 320 321 321 321 319 321 320 321 321 322 322 323 323 324 332 331 331 332 333 330 329 331 334 331 330 330 329 331
320 320 320 322 321 322 323 321 321 321 321 320 320 320 320 321 321 322 322 321 320 321 321 322 323 322 328 324 330 330 331 332 332 332 329 330 331 331 329 330 331 330 330
316 317 320 322 322 323 323 323 323 323 322 322 321 321 322 321 323 323 323 322 322 322 323 323 323 328 326 327 331 333 332 332 332 331 331 331 331 328 330 329 329 330 330
315 317 317 322 323 324 322 322 321 321 321 321 321 321 322 322 321 323 323 322 321 323 324 325 325 326 328 330 330 330 331 332 330 330 329 328 328 327 327 328 329 331 333
314 315 318 321 321 324 322 321 324 323 324 324 322 322 322 324 323 322 324 323 324 326 326 325 326 326 330 329 330 331 330 330 329 328 328 331 330 329 329 329 331 331 331
317 313 318 319 319 321 324 323 325 325 325 323 321 325 326 324 325 326 326 326 327 327 328 327 327 330 329 329 329 330 329 329 329 329 330 331 331 331 330 330 329 329 330
318 314 317 319 317 321 325 325 323 326 324 325 325 326 327 327 325 325 325 325 327 327 327 328 327 328 329 330 330 329 330 329 329 328 330 331 330 329 328 329 328 328 327
320 316 318 321 317 323 325 325 325 326 326 327 323 323 325 325 325 325 325 327 327 327 327 323 329 329 330 330 330 329 329 329 329 329 329 330 329 328 328 328 328 329 329
322 320 318 320 318 319 323 324 323 322 323 326 327 324 324 324 324 326 326 326 326 327 328 327 329 330 329 329 329 328 329 329 329 328 327 328 328 328 327 326 325 326 327
Wind_Speed
5 8 12 13 14 17 19 20 18 18 20 23 24 23 21 17 14 13 15 12 14 14 15 15 15 14 12 13 15 17 22 21 19 21 21 15 11 14 12 12 13 14 16
8 12 14 15 14 15 18 18 18 19 20 22 24 22 19 16 14 14 14 13 13 14 14 16 15 15 13 11 15 17 18 22 19 20 21 18 15 17 14 13 14 16 17
7 9 12 15 15 15 14 16 17 19 22 22 23 21 20 17 16 14 14 15 14 14 14 14 16 15 13 11 13 16 16 19 18 18 20 22 21 19 14 13 15 15 17
7 11 11 10 11 14 14 14 18 20 21 23 23 23 21 19 18 18 16 16 15 13 14 13 15 15 15 12 12 15 15 17 20 19 17 20 29 22 14 13 14 16 17
9 11 9 9 12 14 14 16 18 19 22 23 25 24 22 21 19 19 17 16 16 14 12 14 14 13 16 14 12 15 14 15 19 21 22 17 16 20 19 15 15 16 17
11 11 11 13 13 13 15 17 20 21 23 25 23 23 22 19 18 20 19 18 17 14 14 15 16 15 16 16 14 14 15 15 18 18 21 23 16 16 20 19 17 16 17
11 12 12 11 11 14 17 18 22 24 27 26 23 22 24 21 19 18 19 20 20 18 14 16 17 18 16 16 15 15 15 17 17 16 14 25 27 24 22 17 17 18 18
10 9 9 9 12 15 18 20 23 26 28 28 27 25 26 22 20 19 17 17 20 20 15 16 18 17 17 16 15 16 15 17 16 15 21 27 21 21 21 19 17 18 18
10 10 10 12 16 17 18 21 26 30 29 27 26 25 26 23 23 22 20 16 17 18 16 18 21 19 20 18 17 16 15 16 18 16 20 26 24 26 21 17 16 18 18
11 11 14 15 16 18 22 26 26 23 24 27 25 21 23 24 24 25 22 21 17 18 19 18 22 22 21 19 17 18 17 16 19 20 19 29 26 24 22 20 19 20 19
11 13 15 17 17 21 23 22 22 21 19 19 20 25 29 29 26 25 24 21 20 18 21 20 22 24 21 20 17 19 18 18 18 21 18 33 29 27 22 25 23 21 20
12 14 15 16 17 19 20 21 21 19 16 12 15 19 20 24 25 28 29 27 25 19 18 21 22 24 22 21 18 20 21 18 20 20 19 27 26 23 24 24 22 20 21
13 14 14 15 14 17 17 18 19 13 11 12 14 11 13 17 19 25 28 24 23 19 19 20 23 24 23 21 20 22 21 19 24 24 20 24 28 26 24 23 22 22 22
13 13 16 14 14 18 16 16 16 11 8 10 7 6 5 6 7 11 15 17 19 18 17 18 21 23 22 22 21 25 23 22 24 24 27 27 25 27 26 25 24 24 25
14 12 14 13 14 16 14 15 13 11 9 5 4 2 3 4 2 7 11 13 14 15 17 19 22 22 22 21 22 26 25 27 25 26 31 32 30 27 25 25 26 27 27
13 12 12 13 14 16 11 13 11 9 9 6 2 1 2 3 3 5 8 11 13 14 17 18 19 20 22 22 23 26 27 29 30 27 30 30 31 27 26 27 29 29 27
11 13 13 13 14 13 11 11 10 8 7 5 1 1 4 4 4 5 8 11 13 14 16 17 17 18 22 22 24 28 29 29 29 27 30 33 30 26 27 28 28 28 27
9 14 14 13 14 13 11 11 8 8 6 5 3 1 3 4 4 7 10 12 13 15 16 17 17 19 20 22 26 29 30 31 31 33 34 28 23 28 27 27 27 27 27
9 13 15 14 14 12 12 10 9 8 7 4 3 3 6 6 7 8 9 11 14 15 16 16 17 19 21 24 27 30 30 30 29 30 31 26 24 24 24 26 25 26 25
8 12 16 14 14 13 11 11 9 9 7 5 3 3 2 2 5 7 10 12 14 15 16 18 19 22 24 27 31 32 32 29 27 25 22 31 28 26 24 23 23 23 23
9 8 13 13 16 16 11 10 10 8 8 6 5 4 6 3 5 7 10 14 13 15 18 21 25 26 29 32 35 31 24 29 27 27 31 29 28 26 22 21 22 20 21
9 5 10 10 13 17 12 10 12 13 10 7 9 11 10 13 12 7 8 12 13 20 22 24 28 32 34 34 38 37 30 33 24 24 28 23 24 23 23 23 21 20 19
8 6 8 9 12 14 12 9 13 14 12 9 12 12 12 13 17 15 16 13 12 22 25 27 30 34 36 35 35 23 28 18 31 25 24 23 24 24 23 20 18 17 17
6 7 6 10 11 10 13 11 14 15 19 15 14 18 19 19 20 21 15 8 17 25 26 29 34 35 38 43 32 34 20 40 28 24 27 24 21 20 17 15 16 16 11
6 6 4 8 9 8 12 14 18 15 16 15 14 9 11 14 14 14 16 20 17 18 27 26 29 37 39 38 37 33 21 30 34 34 31 26 23 21 20 16 15 15 13
6 4 2 6 7 6 8 12 14 16 15 15 15 12 4 6 12 10 11 19 17 16 22 25 21 25 29 28 26 29 33 36 35 40 36 25 21 17 13 11 10 12 11
Wind_Direction
221 260 255 259 281 291 293 297 295 302 308 309 311 311 303 285 269 257 265 266 264 252 250 236 232 232 228 216 214 212 214 203 200 199 202 190 195 183 165 156 153 144 138
226 234 254 269 270 271 286 291 294 298 301 308 312 311 307 290 269 252 253 255 253 256 248 238 233 233 228 220 214 216 216 209 203 201 201 199 197 167 167 164 158 144 145
246 239 259 264 255 271 293 293 293 299 300 301 309 306 304 287 269 249 246 252 248 245 247 244 233 232 227 222 216 217 218 207 206 203 205 198 181 156 164 162 151 148 148
288 298 285 274 285 286 279 279 287 291 290 295 300 301 299 293 266 254 246 244 251 245 248 247 238 232 227 217 217 214 218 216 210 205 209 196 153 147 151 155 152 155 145
308 315 304 290 292 288 282 281 283 285 290 294 295 294 286 285 262 250 248 241 246 252 239 246 244 237 225 218 209 216 211 212 206 205 201 181 138 148 142 149 155 149 143
323 313 299 297 281 273 279 276 283 285 285 288 280 278 272 265 254 245 245 245 244 248 236 233 243 233 228 220 205 211 207 201 199 194 203 204 159 153 137 159 161 151 147
292 287 286 266 262 283 282 283 287 290 291 280 270 267 265 257 249 245 247 247 245 247 249 224 230 233 225 219 210 205 207 203 200 193 189 168 169 158 153 161 165 157 154
283 286 282 283 290 296 296 293 291 291 287 279 273 264 266 256 240 242 251 255 245 242 242 237 224 227 221 218 211 207 206 203 202 191 175 177 165 154 161 167 166 154 154
296 297 297 302 307 306 296 291 291 292 289 279 276 271 265 251 244 243 253 251 250 241 232 232 219 220 215 214 209 202 202 199 204 198 191 176 176 167 168 174 171 162 159
301 304 310 312 310 299 297 299 297 295 287 277 272 265 257 255 250 247 248 249 261 241 231 237 217 217 212 209 207 200 196 201 201 203 192 183 179 168 176 181 175 172 166
306 313 319 318 309 304 307 309 303 296 292 277 268 263 262 262 257 252 245 246 253 244 228 222 218 210 207 209 204 197 192 201 198 198 194 185 183 165 172 177 168 163 166
325 334 327 317 312 317 318 320 314 302 293 287 275 271 268 262 258 252 251 248 251 233 230 220 213 205 204 206 198 192 191 192 191 185 177 173 159 159 173 170 167 170 169
339 337 332 326 316 329 328 331 330 318 306 298 296 280 269 261 256 240 240 230 221 218 217 215 204 201 202 201 194 189 186 179 185 186 179 171 158 161 177 177 175 173 164
342 348 343 335 321 325 325 332 344 336 312 309 311 302 281 278 238 219 212 210 211 213 212 204 200 196 198 197 191 186 184 176 178 177 168 158 162 171 175 177 174 165 157
348 348 355 343 340 334 329 336 339 336 337 323 325 19 27 48 138 174 183 192 197 207 201 197 194 194 195 194 193 187 182 176 177 169 166 162 167 174 174 172 168 158 151
354 0 351 346 349 342 342 348 350 344 344 325 276 33 52 84 103 146 171 184 194 192 190 194 194 193 194 194 194 186 180 180 184 173 166 163 153 157 169 170 162 155 152
6 7 360 356 356 350 351 356 355 358 3 12 98 140 147 144 164 187 188 189 183 180 181 185 190 194 194 195 190 182 179 179 179 176 168 170 157 171 172 166 160 155 152
15 12 4 1 5 3 3 0 356 6 354 357 1 217 215 216 205 219 196 187 187 183 184 187 190 196 191 188 185 181 179 179 171 166 156 151 172 170 165 161 159 154 152
21 17 6 359 4 4 7 360 13 18 11 355 332 281 262 264 244 220 204 191 185 188 189 192 188 190 175 180 179 174 174 174 176 168 162 164 166 163 163 158 159 154 153
25 20 14 14 8 2 358 3 14 24 23 19 4 335 321 259 211 194 193 187 179 192 191 185 183 174 175 174 171 173 173 171 174 175 181 168 161 160 161 158 158 154 155
27 23 15 20 22 17 14 23 41 31 19 347 12 23 352 263 195 179 191 195 195 190 189 176 178 165 160 170 168 168 173 168 159 150 153 154 160 158 158 170 155 159 154
35 38 18 22 19 22 24 33 42 26 32 27 54 66 58 74 138 155 172 183 181 158 162 169 170 163 164 170 156 146 134 148 154 162 165 163 163 164 164 162 152 159 153
45 51 33 36 19 25 28 45 54 33 47 58 71 80 72 95 84 84 124 131 156 153 160 162 165 159 165 170 164 147 135 140 151 163 166 160 154 153 153 150 146 144 143
64 56 53 36 20 35 36 48 74 47 57 72 88 79 82 78 78 77 109 150 141 161 150 164 171 174 171 158 162 154 160 160 147 114 146 147 150 147 142 146 152 158 165
101 64 76 33 31 55 54 54 60 64 61 62 76 81 74 77 78 78 62 81 126 133 152 158 148 166 170 155 162 164 161 159 156 146 129 135 143 146 157 164 172 179 173
161 90 66 31 26 54 60 55 55 53 60 76 82 101 98 101 87 62 75 99 106 112 134 148 150 156 161 174 171 172 169 163 163 158 149 144 146 140 142 148 147 155 149